#timestamp,LO_Frequency,Hit,StdDev 
1628751615.2,286047000.7,P
1628751635.0,286046998.6,P
1628751635.9,286046998.6,N
1628751655.8,286046998.7,N
1628751675.6,286047000.7,N
1628751695.4,286047002.6,N
1628751715.3,286047004.3,N
1628751735.1,286047004.2,N
1628751736.0,286047004.2,N
1628751755.8,286047003.7,N
1628751775.7,286047001.7,N
1628751795.5,286047001.5,N
1628751815.3,286047001.8,N
1628751835.2,286046998.5,N
1628751855.9,286046998.8,N
1628751875.7,286046997.6,N
1628751895.6,286046996.7,N
1628751915.4,286046998.6,N
1628751935.2,286046999.8,N
1628751955.1,286047001.6,N
1628751956.0,286047001.6,N
1628751975.8,286047002.5,N
1628751995.6,286046998.9,N
1628752015.5,286046999.5,N
1628752035.3,286046996.7,N
1628752055.1,286046996.9,N
1628752075.9,286046999.1,N
1628752095.7,286046999.5,N
1628752115.5,286046999.5,N
1628752135.4,286046999.5,N
1628752155.2,286046997.0,N
1628752175.0,286046997.7,N
1628752175.9,286046997.7,N
1628752195.8,286046995.2,N
1628752215.6,286046996.7,N
1628752235.4,286046996.5,N
1628752255.3,286046996.9,N
1628752275.1,286046997.1,N
1628752276.0,286046997.1,N
1628752295.8,286046999.4,N
1628752315.7,286046999.2,N
1628752335.5,286046996.6,N
1628752355.3,286046999.2,N
1628752375.2,286046996.9,N
1628752395.9,286046997.7,N
1628752415.7,286046996.9,N
1628752435.6,286046997.1,N
1628752455.4,286046996.7,N
1628752475.2,286046997.5,N
1628752495.1,286046997.1,N
1628752496.0,286046997.1,N
1628752515.8,286046997.0,N
1628752535.6,286046996.9,N
1628752555.5,286046996.7,N
1628752575.3,286046997.0,N
1628752595.1,286046996.8,N
1628752615.9,286046997.1,N
1628752635.7,286046996.5,Y
1628752655.5,286047000.9,P
1628752675.4,286046998.5,N
1628752695.2,286047001.1,N
1628752715.0,286047001.0,N
1628752715.9,286047001.0,N
1628752735.8,286047001.1,N
1628752755.6,286046998.4,N
1628752775.4,286047001.1,N
1628752795.3,286047001.0,N
1628752815.1,286047000.8,N
1628752816.0,286047000.8,N
1628752835.8,286047000.3,N
1628752855.7,286047000.4,N
1628752875.5,286047000.2,N
1628752895.3,286047000.1,N
1628752915.2,286047000.3,N
1628752935.9,286047000.9,N
1628752955.7,286047000.6,N
1628752975.6,286047000.0,N
1628752995.4,286046998.6,N
1628753015.2,286046998.3,N
1628753035.1,286046998.4,N
1628753036.0,286046998.4,N
1628753055.8,286046998.7,N
1628753075.6,286046998.4,N
1628753095.5,286046998.2,N
1628753115.3,286046998.5,N
1628753135.1,286046998.7,N
1628753155.9,286046998.1,N
1628753175.7,286047000.7,N
1628753195.5,286047000.4,N
1628753215.4,286046998.5,N
1628753235.2,286046998.2,N
1628753255.0,286046998.9,N
1628753255.9,286046998.9,N
1628753275.8,286046998.4,N
1628753295.6,286047001.1,N
1628753315.4,286047000.9,N
1628753335.3,286047000.3,N
1628753355.1,286047001.0,N
1628753375.8,286046998.2,N
1628753395.7,286046998.3,N
1628753415.5,286046998.6,N
1628753435.3,286046999.3,N
1628753455.2,286046999.0,N
1628753475.0,286046998.6,N
1628753475.9,286046998.6,N
1628753495.8,286046998.1,N
1628753515.6,286046998.6,N
1628753535.4,286047000.8,N
1628753555.3,286047000.2,N
1628753575.1,286047002.7,N
1628753576.0,286047002.7,N
1628753595.8,286047002.2,N
1628753615.7,286047002.2,N
1628753635.5,286046999.7,N
1628753655.3,286047002.5,N
1628753675.2,286047002.5,N
1628753695.9,286047002.7,N
1628753715.7,286047001.9,N
1628753735.6,286046999.7,N
1628753755.4,286046999.8,N
1628753775.2,286047002.7,N
1628753795.1,286047002.4,N
1628753796.0,286047002.4,N
1628753815.8,286046999.7,N
1628753835.6,286047002.6,N
1628753855.5,286047002.5,N
1628753875.3,286047002.3,N
1628753895.1,286046999.8,N
1628753915.9,286047000.1,N
1628753935.7,286047000.3,N
1628753955.5,286047000.2,N
1628753975.4,286047000.6,N
1628753995.2,286047000.4,N
1628754015.0,286046999.9,N
1628754015.9,286046999.9,N
1628754035.8,286047000.2,N
1628754055.6,286047000.5,N
1628754075.4,286047000.0,N
1628754095.3,286047002.6,N
1628754115.1,286046999.8,N
1628754116.0,286046999.8,N
1628754135.8,286046999.8,N
1628754155.7,286047000.6,N
1628754175.5,286047002.8,N
1628754195.3,286047000.0,N
1628754215.2,286047002.8,N
1628754235.9,286047002.2,N
1628754255.7,286047000.1,N
1628754275.6,286047002.3,N
1628754295.4,286047002.5,N
1628754315.2,286047000.0,N
1628754335.1,286047000.0,N
1628754336.0,286047000.0,N
1628754355.8,286047002.1,N
1628754375.6,286047002.5,N
1628754395.5,286047001.6,N
1628754415.3,286047002.5,N
1628754435.1,286047002.6,N
1628754455.9,286047002.7,N
1628754475.7,286047002.3,N
1628754495.5,286047002.1,N
1628754515.4,286047002.3,N
1628754535.2,286047000.0,N
1628754555.0,286047002.3,N
1628754555.9,286047002.3,N
1628754575.8,286047002.0,N
1628754595.6,286047000.2,N
1628754615.4,286047002.8,N
1628754635.3,286047002.8,N
1628754655.1,286046999.7,N
1628754675.8,286047002.4,N
1628754695.7,286047002.1,N
1628754715.5,286047002.0,N
1628754735.3,286047001.9,N
1628754755.2,286047002.3,N
1628754775.0,286047001.6,N
1628754775.9,286047001.6,N
1628754795.7,286047001.9,N
1628754815.6,286047002.0,N
1628754835.4,286047001.5,N
1628754855.3,286047004.1,Y
1628754875.1,286047002.7,P
1628754876.0,286047002.7,P
1628754895.8,286047000.6,N
1628754915.7,286047000.6,N
1628754935.5,286047000.2,N
1628754955.3,286046999.7,N
1628754975.2,286047000.4,N
1628754995.9,286047000.0,N
1628755015.7,286047000.5,N
1628755035.6,286047000.6,N
1628755055.4,286047000.5,N
1628755075.2,286047000.6,N
1628755095.1,286047001.0,N
1628755096.0,286047001.0,N
1628755115.8,286047001.0,N
1628755135.6,286046999.8,N
1628755155.5,286047000.4,N
1628755175.3,286047000.9,N
1628755195.1,286047000.7,N
